Date String (YYYY-MM-DD hh:mm:ss) UTC,Instrument flags,Ambient pressure (hPa),Sample flow (lpm),Bypass flow (lpm),Sample temperature (°C),Ambient temperature (°C),ASC tube jacket temperature (°C),LED temperature (°C),Box temperature (°C),Sample RH (%),Span deviation,Mass concentration (μg/m³),Mass concentration (μg/m³),Mass concentration (μg/m³)
DateTimeUTC,F1_M11,P_M11,Q1_M11,Q2_M11,T1_M11,T2_M11,T3_M11,T4_M11,T5_M11,U1_M11,ZSPAN_M11,X2_M11,X0_M11,X1_M11
2022-08-09 09:00:00,,0829.9,5.00,0.00,29.8,28.8,00.0,38.6,31.8,31.0,0000.0,0006.07,0010.63,0005.33
2022-08-09 09:01:00,,0829.8,5.00,0.00,29.8,28.8,00.0,38.6,31.8,31.1,0000.0,0006.07,0010.64,0005.32
2022-08-09 09:02:00,,0829.8,5.00,0.00,29.8,28.9,00.0,38.6,31.8,31.2,0000.0,0006.07,0011.01,0005.33
2022-08-09 09:03:00,,0829.9,5.00,0.00,29.9,28.9,00.0,38.6,31.8,31.3,0000.0,0006.07,0011.36,0005.32
2022-08-09 09:04:00,,0829.9,5.01,0.00,29.9,28.5,00.0,38.6,31.7,31.2,0000.0,0006.02,0011.50,0005.33
2022-08-09 09:05:00,,0829.9,4.98,0.00,29.8,27.9,00.0,38.6,31.6,31.1,0000.0,0006.02,0011.66,0005.35
2022-08-09 09:06:00,,0829.8,5.00,0.00,29.8,27.6,00.0,38.5,31.5,31.1,0000.0,0006.04,0011.57,0005.35
2022-08-09 09:07:00,,0829.8,5.00,0.00,29.7,27.6,00.0,38.5,31.5,31.3,0000.0,0006.03,0012.41,0005.36
2022-08-09 09:08:00,,0830.0,4.99,0.00,29.7,27.7,00.0,38.5,31.4,31.3,0000.0,0006.08,0012.68,0005.39
2022-08-09 09:09:00,,0829.8,5.00,0.00,29.6,27.8,00.0,38.5,31.4,31.2,0000.0,0006.11,0012.66,0005.40
2022-08-09 09:10:00,,0829.9,4.99,0.00,29.6,27.9,00.0,38.5,31.5,31.1,0000.0,0006.10,0012.48,0005.41
2022-08-09 09:11:00,,0829.9,5.01,0.00,29.6,28.1,00.0,38.5,31.5,31.0,0000.0,0006.10,0012.42,0005.42
2022-08-09 09:12:00,,0830.0,5.00,0.00,29.6,28.2,00.0,38.5,31.5,31.0,0000.0,0006.12,0012.83,0005.43
2022-08-09 09:13:00,,0830.0,5.00,0.00,29.7,28.3,00.0,38.5,31.6,31.0,0000.0,0006.15,0013.63,0005.45
2022-08-09 09:14:00,,0830.0,5.00,0.00,29.7,28.4,00.0,38.5,31.6,30.9,0000.0,0006.20,0013.41,0005.47
2022-08-09 09:15:00,,0830.0,5.00,0.00,29.7,28.5,00.0,38.5,31.6,30.8,0000.0,0006.27,0014.03,0005.49
2022-08-09 09:16:00,,0830.1,5.00,0.00,29.7,28.6,00.0,38.5,31.7,30.7,0000.0,0006.29,0014.30,0005.49
2022-08-09 09:17:00,,0830.1,5.00,0.00,29.7,28.6,00.0,38.5,31.7,30.6,0000.0,0006.33,0014.39,0005.50
2022-08-09 09:18:00,,0830.1,4.99,0.00,29.8,28.7,00.0,38.5,31.8,30.4,0000.0,0006.35,0013.52,0005.50
2022-08-09 09:19:00,,0830.1,5.00,0.00,29.8,28.7,00.0,38.6,31.8,30.4,0000.0,0006.31,0013.35,0005.50
2022-08-09 09:20:00,,0830.1,5.00,0.00,29.8,28.8,00.0,38.6,31.7,30.3,0000.0,0006.30,0013.34,0005.51
2022-08-09 09:21:00,,0830.1,5.00,0.00,29.8,28.8,00.0,38.6,31.8,30.2,0000.0,0006.33,0013.69,0005.51
2022-08-09 09:22:00,,0830.1,5.00,0.00,29.9,28.9,00.0,38.6,31.9,30.1,0000.0,0006.35,0013.70,0005.52
2022-08-09 09:23:00,,0830.1,5.00,0.00,29.9,28.9,00.0,38.6,31.9,29.9,0000.0,0006.36,0013.39,0005.52
2022-08-09 09:24:00,,0830.1,5.00,0.00,29.9,28.3,00.0,38.6,31.6,29.6,0000.0,0006.40,0012.55,0005.54
2022-08-09 09:25:00,,0830.0,5.00,0.00,29.8,27.7,00.0,38.6,31.5,29.6,0000.0,0006.39,0012.22,0005.54
2022-08-09 09:26:00,,0830.0,5.00,0.00,29.7,27.5,00.0,38.5,31.4,29.7,0000.0,0006.40,0011.51,0005.56
2022-08-09 09:27:00,,0829.9,4.99,0.00,29.7,27.6,00.0,38.5,31.4,29.6,0000.0,0006.44,0011.26,0005.56
2022-08-09 09:28:00,,0829.9,5.01,0.00,29.6,27.7,00.0,38.5,31.4,29.7,0000.0,0006.42,0011.33,0005.57
2022-08-09 09:29:00,,0829.9,4.99,0.00,29.6,27.8,00.0,38.5,31.4,29.6,0000.0,0006.46,0011.31,0005.58
2022-08-09 09:30:00,,0830.0,5.00,0.00,29.6,27.9,00.0,38.5,31.5,29.6,0000.0,0006.51,0011.53,0005.58
2022-08-09 09:31:00,,0830.1,5.00,0.00,29.6,28.0,00.0,38.5,31.5,29.4,0000.0,0006.50,0011.55,0005.57
2022-08-09 09:32:00,,0830.1,4.99,0.00,29.6,28.1,00.0,38.5,31.5,29.5,0000.0,0006.48,0011.27,0005.56
2022-08-09 09:33:00,,0830.1,5.00,0.00,29.6,28.2,00.0,38.5,31.5,29.4,0000.0,0006.46,0011.31,0005.56
2022-08-09 09:34:00,,0830.1,5.00,0.00,29.7,28.3,00.0,38.5,31.6,29.4,0000.0,0006.42,0011.19,0005.54
2022-08-09 09:35:00,,0830.1,5.00,0.00,29.7,28.4,00.0,38.5,31.6,29.3,0000.0,0006.37,0010.96,0005.52
2022-08-09 09:36:00,,0830.1,5.00,0.00,29.7,28.5,00.0,38.5,31.6,29.2,0000.0,0006.32,0010.83,0005.49
2022-08-09 09:37:00,,0830.1,5.00,0.00,29.7,28.6,00.0,38.5,31.7,29.3,0000.0,0006.32,0010.84,0005.48
2022-08-09 09:38:00,,0830.1,4.99,0.00,29.7,28.6,00.0,38.5,31.7,29.6,0000.0,0006.32,0010.84,0005.47
2022-08-09 09:39:00,,0830.1,5.00,0.00,29.7,28.7,00.0,38.5,31.7,29.4,0000.0,0006.29,0010.99,0005.46
2022-08-09 09:40:00,,0830.2,5.00,0.00,29.8,28.7,00.0,38.6,31.8,29.5,0000.0,0006.26,0011.27,0005.44
2022-08-09 09:41:00,,0830.1,5.00,0.00,29.8,28.8,00.0,38.6,31.7,29.7,0000.0,0006.22,0011.63,0005.44
2022-08-09 09:42:00,,0830.1,5.01,0.00,29.8,28.8,00.0,38.6,31.8,29.8,0000.0,0006.19,0011.95,0005.43
2022-08-09 09:43:00,,0830.2,4.99,0.00,29.9,28.9,00.0,38.6,31.8,29.8,0000.0,0006.19,0012.04,0005.42
2022-08-09 09:44:00,,0830.1,5.00,0.00,29.9,28.9,00.0,38.6,31.9,29.7,0000.0,0006.18,0011.94,0005.42
2022-08-09 09:45:00,,0830.1,5.01,0.00,29.9,28.9,00.0,38.6,31.9,29.7,0000.0,0006.20,0012.13,0005.44
2022-08-09 09:46:00,,0830.1,5.00,0.00,29.9,28.2,00.0,38.6,31.7,29.7,0000.0,0006.21,0012.54,0005.44
2022-08-09 09:47:00,,0830.1,5.01,0.00,29.8,27.7,00.0,38.6,31.6,29.8,0000.0,0006.23,0013.11,0005.44
2022-08-09 09:48:00,,0830.1,4.98,0.00,29.8,27.6,00.0,38.6,31.5,29.9,0000.0,0006.17,0013.44,0005.43
2022-08-09 09:49:00,,0830.1,5.01,0.00,29.7,27.6,00.0,38.5,31.4,30.1,0000.0,0006.12,0013.67,0005.42
2022-08-09 09:50:00,,0830.1,4.99,0.00,29.7,27.7,00.0,38.5,31.4,30.1,0000.0,0006.14,0013.27,0005.43
2022-08-09 09:51:00,,0830.1,5.01,0.00,29.6,27.8,00.0,38.5,31.4,30.2,0000.0,0006.13,0013.24,0005.42
2022-08-09 09:52:00,,0830.1,5.00,0.00,29.6,28.0,00.0,38.5,31.5,30.3,0000.0,0006.13,0012.50,0005.42
2022-08-09 09:53:00,,0830.1,5.00,0.00,29.6,28.1,00.0,38.5,31.5,30.2,0000.0,0006.18,0012.49,0005.43
2022-08-09 09:54:00,,0830.1,5.01,0.00,29.7,28.2,00.0,38.5,31.5,30.2,0000.0,0006.23,0012.84,0005.43
2022-08-09 09:55:00,,0830.1,5.00,0.00,29.7,28.3,00.0,38.5,31.6,30.3,0000.0,0006.21,0013.32,0005.42
2022-08-09 09:56:00,,0830.2,5.00,0.00,29.7,28.4,00.0,38.5,31.6,31.0,0000.0,0006.22,0013.41,0005.41
2022-08-09 09:57:00,,0830.2,5.00,0.00,29.7,28.5,00.0,38.5,31.6,31.8,0000.0,0006.23,0013.64,0005.41
2022-08-09 09:58:00,,0830.2,5.00,0.00,29.7,28.6,00.0,38.5,31.7,31.9,0000.0,0006.22,0013.30,0005.41
2022-08-09 09:59:00,,0830.3,5.00,0.00,29.7,28.6,00.0,38.5,31.7,31.2,0000.0,0006.19,0012.73,0005.40
